[Date Prev][Date Next][Thread Prev][Thread Next] - [Date Index][Thread Index][Author Index]
2 Line ISS Keps 1-22
- Subject: [sarex] 2 Line ISS Keps 1-22
- From: "Dave Larsen PhD" <doc@xxxxxxxxxxx>
- Date: Sat, 21 Jan 2006 19:41:58 -0800
ISS
1 25544U 98067A 06022.00150713 .00009055 00000-0 65983-4 0 1971
2 25544 051.6429 219.1921 0010161 179.8746 340.6623 15.74143168410127
----
Via the sarex mailing list at AMSAT.ORG courtesy of AMSAT-NA.
To unsubscribe, send "unsubscribe sarex" to Majordomo@amsat.org
AMSAT Home